Starlink 31965

operational
NORAD ID: 59888 Int'l Des: 2024-100 Owner: SPXS Country: US Constellation: starlink
LEOCIRCULAR

Über Starlink 31965

Beschreibung wird geladen...

Live-Position

3D-Globus wird geladen...

Nächste Überflüge

Höhenverlauf

Altitude vs Time

uPlot chart will show altitude changes over time

Zweizeiliger Elementsatz

1 59888U 24100D 25353.97642508 .00013219 00000-0 48924-3 0 9990
2 59888 42.9980 215.7570 0001411 276.8963 83.1728 15.27565387 88865
Epoch: 19. Dez. 2025 • Age: 10 hours

Aktueller Status

Höhe 489.4 km
Geschwindigkeit 7.62 km/s
Subsatellitenpunkt -26.81°S, 170.52°W
Startdatum 28. Mai 2024
Alter 1.5 years
Typ internet

Technische Details

Klassifizierung Payload
Masse 730.00 kg
Trockenmasse 700.00 kg
Gesamtmasse 730.00 kg
Länge 0.30 m
Durchmesser 4.10 m
Spannweite 29.00 m
Form Box + pan
Hersteller SPXS
Bus-Typ Starlink V2M
Phasenstatus In Orbit
Besitzer/Staat SPXS/US

Große Konstellationen

Loading constellations...